KAZSTSAT (43783 NORAD) Tracking and Keplerian Element Data

This shows tracking and keplerian element data for the satellite.

Feedback or suggestion? Click here.




ElementValue
Catalog43783
NameKAZSTSAT
Epoch Orbit38446
Epoch Day354.07585825
Epoch Year2025
RAAN28.9452
Inclination97.4531
Eccentricity0.0005979
Argument of Perigee297.2395
Mean Anonmoly62.8219
Mean Motion14.99364143
Decay Rate1.88E-06
L11 43783U 18099AB 25354.07585825 .00000188 00000+0 19936-4 0 9999
L22 43783 97.4531 28.9452 0005979 297.2395 62.8219 14.99364143384460



Live tracking and technical data element details for KAZSTSAT (NORAD 43783). KAZSTSAT can be tracked NOW for your location showing map with azimuth and elevation plus other details from your city location.







IsCatalogInMostPopularTable: catalog: 43783, numindb: 507
Update: records affected: 1



GetName: 43783 KAZSTSAT

Hit Count: updated at: Mon, 18 May 2026 10:27:27 GMT